Terminal Aerodrome Forecast
Issued by NWS Wilmington, OH

Current Version | Previous Version | Text Only | Print | Product List | Glossary Off
Versions: 1 2 3 4 5 6 7 8 9 10 11 12 13 14 15 16 17 18 19 20 21 22

000
FTUS41 KILN 190539
TAFCVG
TAF
KCVG 190539Z 1906/2012 30014G22KT P6SM OVC015
     FM190900 30012G18KT P6SM OVC025
     FM192000 28012G18KT P6SM BKN035
     FM192200 28010KT P6SM FEW035
     FM200600 25005KT P6SM SCT250=

USA.gov is the U.S. government's official web portal to all federal, state and local government web resources and services.